Time,TemperatureF,DewpointF,PressureIn,WindDirection,WindDirectionDegrees,WindSpeedMPH,WindSpeedGustMPH,Humidity,HourlyPrecipIn,Conditions,Clouds,dailyrainin,SoftwareType,DateUTC
2013-03-04 00:29:00,41.9,34.9,30.07,NE,45,2.0,15.0,76,0.00,CLR,FEW,0.00,WeatherDisplay:10.37,2013-03-04 00:29:00,
2013-03-04 00:59:00,41.7,34.7,30.08,NE,45,1.0,15.0,76,0.00,CLR,FEW,0.00,WeatherDisplay:10.37,2013-03-04 00:59:00,
2013-03-04 01:29:00,41.7,35.0,30.07,NE,45,0.0,12.0,77,0.00,CLR,FEW,0.00,WeatherDisplay:10.37,2013-03-04 01:29:00,
2013-03-04 01:59:00,41.5,35.2,30.05,NE,45,1.0,13.0,78,0.00,CLR,FEW,0.00,WeatherDisplay:10.37,2013-03-04 01:59:00,
2013-03-04 02:29:00,41.2,34.8,30.04,NE,45,2.0,12.0,78,0.00,CLR,FEW,0.00,WeatherDisplay:10.37,2013-03-04 02:29:00,
2013-03-04 03:00:00,41.5,35.2,30.03,NE,45,2.0,9.0,78,0.00,CLR,FEW,0.00,WeatherDisplay:10.37,2013-03-04 03:00:00,
2013-03-04 03:29:00,41.9,35.9,30.01,NE,45,0.0,10.0,79,0.00,CLR,FEW,0.00,WeatherDisplay:10.37,2013-03-04 03:29:00,
2013-03-04 03:59:00,42.1,35.7,30.01,NE,45,0.0,11.0,78,0.00,CLR,FEW,0.00,WeatherDisplay:10.37,2013-03-04 03:59:00,
2013-03-04 04:29:00,42.3,36.0,30.00,NE,45,1.0,13.0,78,0.00,CLR,FEW,0.00,WeatherDisplay:10.37,2013-03-04 04:29:00,
2013-03-04 04:59:00,42.6,35.9,29.99,NE,45,3.0,15.0,77,0.00,CLR,FEW,0.00,WeatherDisplay:10.37,2013-03-04 04:59:00,
2013-03-04 05:29:00,42.8,36.4,29.99,NE,45,6.0,14.0,78,0.00,CLR,FEW,0.00,WeatherDisplay:10.37,2013-03-04 05:29:00,
2013-03-04 05:59:00,42.6,35.6,29.98,NE,45,5.0,16.0,76,0.00,CLR,FEW,0.00,WeatherDisplay:10.37,2013-03-04 05:59:00,
2013-03-04 06:29:00,42.8,35.4,29.97,NE,45,6.0,15.0,75,0.00,CLR,FEW,0.00,WeatherDisplay:10.37,2013-03-04 06:29:00,
2013-03-04 06:59:00,42.8,35.4,29.97,NE,45,7.0,16.0,75,0.00,CLR,FEW,0.00,WeatherDisplay:10.37,2013-03-04 06:59:00,
2013-03-04 07:29:00,42.8,35.4,29.96,NE,45,7.0,13.0,75,0.00,CLR,FEW,0.00,WeatherDisplay:10.37,2013-03-04 07:29:00,
2013-03-04 08:00:00,42.8,36.1,29.96,NE,45,6.0,14.0,77,0.00,CLR,FEW,0.00,WeatherDisplay:10.37,2013-03-04 08:00:00,
2013-03-04 08:29:00,42.8,35.4,29.95,NE,45,7.0,16.0,75,0.00,CLR,FEW,0.00,WeatherDisplay:10.37,2013-03-04 08:29:00,
2013-03-04 08:59:00,42.8,35.1,29.95,NE,45,3.0,15.0,74,0.00,CLR,FEW,0.00,WeatherDisplay:10.37,2013-03-04 08:59:00,
2013-03-04 09:29:00,42.6,35.6,29.94,NE,45,2.0,11.0,76,0.00,CLR,FEW,0.00,WeatherDisplay:10.37,2013-03-04 09:29:00,
2013-03-04 09:59:00,42.8,35.4,29.94,NE,45,0.0,16.0,75,0.00,CLR,FEW,0.00,WeatherDisplay:10.37,2013-03-04 09:59:00,
2013-03-04 10:29:00,42.6,35.2,29.93,NE,45,1.0,13.0,75,0.00,CLR,FEW,0.00,WeatherDisplay:10.37,2013-03-04 10:29:00,
2013-03-04 10:59:00,43.2,35.1,29.93,NE,45,0.0,16.0,73,0.00,CLR,FEW,0.00,WeatherDisplay:10.37,2013-03-04 10:59:00,
2013-03-04 11:29:00,44.2,35.4,29.92,NE,45,5.0,15.0,71,0.00,CLR,FEW,0.00,WeatherDisplay:10.37,2013-03-04 11:29:00,
2013-03-04 11:59:00,44.4,35.2,29.91,NE,45,1.0,13.0,70,0.00,CLR,FEW,0.00,WeatherDisplay:10.37,2013-03-04 11:59:00,
2013-03-04 12:29:00,45.3,36.1,29.90,NE,45,1.0,11.0,70,0.00,CLR,FEW,0.00,WeatherDisplay:10.37,2013-03-04 12:29:00,
2013-03-04 12:59:00,45.1,35.1,29.89,NE,45,0.0,10.0,68,0.00,CLR,FEW,0.00,WeatherDisplay:10.37,2013-03-04 12:59:00,
2013-03-04 13:29:00,45.1,35.6,29.88,NE,45,1.0,10.0,69,0.00,CLR,FEW,0.00,WeatherDisplay:10.37,2013-03-04 13:29:00,
2013-03-04 13:59:00,45.5,35.5,29.87,NE,45,0.0,10.0,68,0.00,CLR,FEW,0.00,WeatherDisplay:10.37,2013-03-04 13:59:00,
2013-03-04 14:29:00,46.2,35.9,29.85,NE,45,1.0,8.0,67,0.00,CLR,FEW,0.00,WeatherDisplay:10.37,2013-03-04 14:29:00,
2013-03-04 14:59:00,45.5,34.8,29.85,NE,45,0.0,8.0,66,0.00,CLR,FEW,0.00,WeatherDisplay:10.37,2013-03-04 14:59:00,
2013-03-04 15:29:00,45.7,35.0,29.84,NE,45,0.0,6.0,66,0.00,CLR,FEW,0.00,WeatherDisplay:10.37,2013-03-04 15:29:00,
2013-03-04 15:59:00,44.2,34.0,29.82,NE,45,0.0,4.0,67,0.00,CLR,FEW,0.00,WeatherDisplay:10.37,2013-03-04 15:59:00,
2013-03-04 16:29:00,43.9,34.0,29.82,NE,45,0.0,4.0,68,0.00,CLR,FEW,0.00,WeatherDisplay:10.37,2013-03-04 16:29:00,
2013-03-04 16:59:00,43.7,34.2,29.82,NE,45,0.0,0.0,69,0.00,CLR,FEW,0.00,WeatherDisplay:10.37,2013-03-04 16:59:00,
2013-03-04 17:29:00,42.6,33.2,29.82,NE,45,0.0,0.0,69,0.00,CLR,FEW,0.00,WeatherDisplay:10.37,2013-03-04 17:29:00,
2013-03-04 17:59:00,41.5,32.8,29.82,NE,45,0.0,0.0,71,0.00,CLR,FEW,0.00,WeatherDisplay:10.37,2013-03-04 17:59:00,
2013-03-04 18:29:00,39.9,32.0,29.82,NE,45,0.0,0.0,73,0.00,CLR,FEW,0.00,WeatherDisplay:10.37,2013-03-04 18:29:00,
2013-03-04 18:59:00,39.0,31.8,29.81,NE,45,0.0,0.0,75,0.00,CLR,FEW,0.00,WeatherDisplay:10.37,2013-03-04 18:59:00,
2013-03-04 19:29:00,38.5,31.9,29.81,NE,45,0.0,0.0,77,0.00,CLR,FEW,0.00,WeatherDisplay:10.37,2013-03-04 19:29:00,
2013-03-04 19:59:00,37.9,32.0,29.81,NE,45,0.0,0.0,79,0.00,CLR,FEW,0.00,WeatherDisplay:10.37,2013-03-04 19:59:00,
2013-03-04 20:29:00,37.9,32.3,29.80,NE,45,0.0,0.0,80,0.00,CLR,FEW,0.00,WeatherDisplay:10.37,2013-03-04 20:29:00,
2013-03-04 20:59:00,37.9,32.6,29.80,NE,45,0.0,0.0,81,0.00,CLR,FEW,0.00,WeatherDisplay:10.37,2013-03-04 20:59:00,
2013-03-04 21:29:00,38.1,32.8,29.79,NE,45,0.0,0.0,81,0.00,CLR,FEW,0.00,WeatherDisplay:10.37,2013-03-04 21:29:00,
2013-03-04 22:00:00,37.8,32.8,29.78,NE,45,0.0,0.0,82,0.00,CLR,FEW,0.00,WeatherDisplay:10.37,2013-03-04 22:00:00,
2013-03-04 22:29:00,37.7,32.7,29.78,NE,45,0.0,0.0,82,0.00,CLR,FEW,0.00,WeatherDisplay:10.37,2013-03-04 22:29:00,
2013-03-04 22:59:00,37.6,32.9,29.77,NE,45,0.0,0.0,83,0.00,CLR,FEW,0.00,WeatherDisplay:10.37,2013-03-04 22:59:00,
2013-03-04 23:29:00,37.5,33.1,29.77,NE,45,0.0,0.0,84,0.00,CLR,FEW,0.00,WeatherDisplay:10.37,2013-03-04 23:29:00,
2013-03-04 23:59:00,37.2,33.1,29.76,NE,45,0.0,0.0,85,0.00,CLR,FEW,0.00,WeatherDisplay:10.37,2013-03-04 23:59:00,